GW3084 Weather Reports


Display with metric or nautical units.
time (UTC)temp
F
wind
direction
speed
MPH
gust
MPH
rain 1hr
in
rain 24hr
in
rain mn
in
humidity
%
barometer
mb
20260904060037 69 255 0.0 3.0 0.03 0.16 0.03 99 1014.2
20260904055114 68 305 1.0 4.0 0.03 0.16 0.03 99 1014.4
20260904054129 69 342 2.0 4.0 0.03 0.16 0.03 99 1014.6
20260904053026 69 354 1.0 4.0 0.02 0.15 0.02 99 1014.8
20260904052104 69 347 1.0 3.0 0.00 0.13 0.00 99 1015.1
20260904051018 68 273 1.0 2.0 0.01 0.13 0.00 99 1014.5
20260904050035 68 318 0.0 1.0 0.01 0.13 0.00 99 1014.0
20260904045032 68 6 0.0 1.0 0.01 0.13 0.13 99 1014.5
20260904044028 68 225 0.0 3.0 0.01 0.13 0.13 99 1014.4
20260904043024 69 121 1.0 4.0 0.01 0.13 0.13 99 1014.0
20260904042022 69 194 1.0 4.0 0.01 0.13 0.13 99 1014.6
20260904041018 69 190 1.0 3.0 0.00 0.12 0.12 99 1014.6
20260904040035 68 359 1.0 3.0 0.00 0.12 0.12 99 1015.2
20260904035032 68 350 3.0 10.0 0.00 0.12 0.12 99 1015.2
20260904034109 69 359 3.0 10.0 0.00 0.12 0.12 98 1014.9
20260904033025 69 37 0.0 1.0 0.00 0.12 0.12 98 1014.9
20260904032022 69 335 1.0 3.0 0.00 0.12 0.12 98 1015.1
20260904031019 69 106 0.0 1.0 0.00 0.12 0.12 97 1014.8
20260904030036 69 0.0 0.0 0.00 0.12 0.12 97 1015.0
20260904025033 70 352 0.0 2.0 0.00 0.12 0.12 96 1015.0
20260904024029 70 349 1.0 2.0 0.00 0.12 0.12 96 1014.9
20260904023027 70 357 1.0 2.0 0.00 0.12 0.12 97 1015.2
20260904022043 70 335 1.0 3.0 0.00 0.12 0.12 96 1014.8
20260904021021 70 342 0.0 1.0 0.00 0.12 0.12 94 1014.5
20260904020017 70 325 0.0 1.0 0.00 0.12 0.12 93 1014.6
20260904015035 70 332 0.0 1.0 0.00 0.12 0.12 92 1014.6
20260904014051 71 352 1.0 4.0 0.00 0.12 0.12 91 1014.5
20260904013027 73 356 0.0 4.0 0.00 0.12 0.12 90 1014.3
20260904012025 73 241 0.0 1.0 0.00 0.12 0.12 90 1014.1
20260904011040 73 201 0.0 2.0 0.00 0.12 0.12 90 1013.8
20260904010017 73 218 0.0 1.0 0.00 0.12 0.12 90 1013.7
20260904005034 73 175 0.0 1.0 0.00 0.12 0.12 90 1013.5
20260904004051 74 172 0.0 1.0 0.00 0.12 0.12 88 1013.5
20260904003027 75 0.0 0.0 0.00 0.12 0.12 87 1013.5
20260904002024 75 194 0.0 1.0 0.00 0.12 0.12 87 1013.4
20260904001020 76 275 0.0 1.0 0.00 0.12 0.12 86 1013.5
20260904000037 76 193 0.0 3.0 0.00 0.12 0.12 86 1013.5
20260903235034 76 113 0.0 2.0 0.00 0.12 0.12 85 1013.4
20260903234031 77 139 1.0 2.0 0.00 0.12 0.12 83 1013.2
20260903233027 78 149 1.0 3.0 0.00 0.12 0.12 82 1013.1
20260903232022 79 162 0.0 2.0 0.00 0.12 0.12 81 1013.3
20260903231019 78 138 0.0 2.0 0.00 0.12 0.12 82 1013.4
20260903230016 78 149 1.0 2.0 0.00 0.12 0.12 83 1013.4
20260903225033 79 159 1.0 4.0 0.00 0.12 0.12 82 1013.2
20260903224030 79 158 1.0 3.0 0.00 0.12 0.12 82 1013.3
20260903223108 79 144 1.0 4.0 0.00 0.12 0.12 81 1013.3
20260903222024 78 175 1.0 2.0 0.00 0.12 0.12 83 1013.5
20260903221021 78 144 1.0 3.0 0.00 0.12 0.12 83 1013.2
20260903220017 77 132 1.0 4.0 0.00 0.12 0.12 85 1013.4
20260903215034 76 189 0.0 2.0 0.00 0.12 0.12 88 1013.3
20260903214032 76 177 2.0 7.0 0.00 0.12 0.12 88 1013.2
20260903213027 76 189 2.0 6.0 0.00 0.12 0.12 88 1013.2
20260903212024 76 174 2.0 6.0 0.00 0.12 0.12 88 1013.0
20260903211041 76 184 2.0 4.0 0.00 0.12 0.12 88 1012.8
20260903210018 76 154 2.0 6.0 0.00 0.12 0.12 89 1012.9
20260903205036 76 157 2.0 4.0 0.00 0.12 0.12 89 1013.2
20260903204032 76 164 2.0 4.0 0.00 0.12 0.12 86 1013.2
20260903203029 77 173 1.0 3.0 0.00 0.12 0.12 85 1013.5
20260903202025 77 158 2.0 4.0 0.00 0.12 0.12 84 1013.2
20260903201042 77 144 1.0 3.0 0.00 0.12 0.12 85 1013.1
20260903200018 76 104 1.0 4.0 0.00 0.12 0.12 86 1013.1
20260903195035 76 111 2.0 4.0 0.00 0.12 0.12 85 1013.4
20260903194052 77 132 1.0 3.0 0.00 0.12 0.12 83 1013.7
20260903193029 78 107 1.0 3.0 0.00 0.12 0.12 81 1014.1
20260903192026 79 105 1.0 4.0 0.00 0.12 0.12 79 1014.5
20260903191023 80 114 1.0 3.0 0.00 0.12 0.12 77 1014.5
20260903190018 82 8 1.0 4.0 0.00 0.12 0.12 76 1014.2
20260903185035 80 3 1.0 4.0 0.00 0.12 0.12 77 1014.3
20260903184032 79 40 1.0 4.0 0.00 0.12 0.12 80 1014.3
20260903183029 76 72 1.0 4.0 0.00 0.12 0.12 83 1014.1
20260903182046 75 107 2.0 7.0 0.00 0.12 0.12 80 1014.1
20260903181021 78 117 2.0 6.0 0.00 0.12 0.12 78 1014.3
20260903180018 80 121 2.0 4.0 0.00 0.12 0.12 76 1014.5
20260903175035 81 232 1.0 3.0 0.00 0.12 0.12 78 1014.7
20260903174051 81 262 1.0 2.0 0.00 0.12 0.12 80 1014.4
20260903173027 80 350 2.0 6.0 0.00 0.12 0.12 80 1013.5
20260903172024 79 325 1.0 3.0 0.00 0.12 0.12 82 1013.4
20260903171021 79 315 0.0 2.0 0.00 0.12 0.12 83 1013.2
20260903170017 78 285 1.0 6.0 0.00 0.12 0.12 83 1013.3
20260903165035 78 280 2.0 11.0 0.00 0.12 0.12 82 1013.1
20260903164030 78 275 4.0 11.0 0.00 0.12 0.12 83 1013.5
20260903163027 78 277 3.0 11.0 0.00 0.12 0.12 85 1013.8
20260903162024 77 270 3.0 10.0 0.00 0.12 0.12 86 1014.0
20260903161021 77 273 5.0 13.0 0.00 0.12 0.12 87 1014.0
20260903160037 76 280 4.0 11.0 0.00 0.12 0.12 90 1013.9
20260903155036 75 277 5.0 11.0 0.01 0.15 0.12 92 1013.7
20260903154051 74 277 4.0 8.0 0.01 0.17 0.12 93 1013.5
20260903153028 74 268 3.0 11.0 0.01 0.17 0.12 93 1013.2
20260903152024 74 271 3.0 9.0 0.03 0.17 0.12 93 1013.2
20260903151021 74 250 3.0 11.0 0.05 0.17 0.12 95 1013.2
20260903150018 73 233 2.0 7.0 0.06 0.17 0.12 99 1013.3
20260903145035 73 209 3.0 6.0 0.11 0.16 0.11 99 1013.2
20260903144032 73 192 1.0 3.0 0.11 0.16 0.11 99 1013.2
20260903143029 73 180 1.0 2.0 0.11 0.16 0.11 99 1013.3
20260903142025 73 0.0 0.0 0.09 0.14 0.09 99 1013.8
20260903141022 73 252 0.0 2.0 0.07 0.12 0.07 99 1013.8
20260903140018 73 173 0.0 1.0 0.06 0.11 0.06 98 1013.9
20260903135035 73 254 0.0 1.0 0.00 0.05 0.00 98 1014.0
20260903134051 73 292 0.0 2.0 0.00 0.05 0.00 99 1013.8
20260903133028 74 0 0.0 1.0 0.00 0.05 0.00 99 1013.4
20260903132025 71 9 0.0 2.0 0.00 0.05 0.00 99 1013.2
20260903131042 69 356 1.0 3.0 0.00 0.05 0.00 99 1013.1
20260903130017 69 349 2.0 7.0 0.00 0.05 0.00 99 1012.9
20260903125034 69 6 1.0 3.0 0.00 0.05 0.00 99 1013.0
20260903124031 68 334 0.0 1.0 0.00 0.05 0.00 99 1012.9
20260903123027 67 340 1.0 2.0 0.00 0.05 0.00 99 1013.0
20260903122024 67 343 1.0 3.0 0.00 0.05 0.00 99 1013.2
20260903121021 67 16 1.0 3.0 0.00 0.05 0.00 99 1013.2
20260903120036 67 1 1.0 2.0 0.00 0.05 0.00 99 1013.2
20260903115052 67 342 1.0 2.0 0.00 0.05 0.00 99 1013.2
20260903114028 67 339 1.0 1.0 0.00 0.05 0.00 99 1013.0
20260903113046 67 347 1.0 2.0 0.00 0.05 0.00 99 1013.2
20260903112021 69 355 1.0 2.0 0.00 0.05 0.00 99 1013.3
20260903111037 69 26 0.0 1.0 0.00 0.05 0.00 99 1013.2
20260903110034 69 0.0 0.0 0.00 0.05 0.00 99 1013.1
20260903105030 69 0.0 0.0 0.00 0.05 0.00 99 1012.9
20260903104047 69 0.0 0.0 0.00 0.05 0.00 99 1012.9
20260903103024 69 0.0 0.0 0.00 0.05 0.00 99 1013.1
20260903102020 69 0.0 0.0 0.00 0.05 0.00 99 1013.2
20260903101017 69 0.0 0.0 0.00 0.05 0.00 99 1013.2
20260903100054 69 0.0 0.0 0.00 0.05 0.00 99 1013.3
20260903095032 69 0.0 0.0 0.00 0.05 0.00 99 1013.3
20260903094027 69 320 0.0 1.0 0.00 0.05 0.00 99 1013.2
20260903093025 69 0.0 0.0 0.00 0.05 0.00 99 1013.0
20260903092021 69 0.0 0.0 0.00 0.05 0.00 99 1013.0
20260903091018 69 0.0 0.0 0.00 0.05 0.00 99 1013.0
20260903090034 69 0.0 0.0 0.00 0.05 0.00 99 1013.0
20260903085031 69 0.0 0.0 0.00 0.05 0.00 99 1012.9
20260903084108 69 0.0 0.0 0.00 0.05 0.00 99 1013.0
20260903083024 68 0.0 0.0 0.00 0.05 0.00 99 1012.9
20260903082021 68 0.0 0.0 0.00 0.05 0.00 99 1013.1
20260903081018 68 0.0 0.0 0.00 0.05 0.00 99 1013.2
20260903080055 68 0.0 0.0 0.00 0.05 0.00 99 1013.2
20260903075031 68 0.0 0.0 0.00 0.05 0.00 99 1013.3
20260903074028 68 0.0 0.0 0.00 0.05 0.00 99 1013.2
20260903073025 69 0.0 0.0 0.00 0.05 0.00 99 1013.3
20260903072041 69 0.0 0.0 0.00 0.05 0.00 99 1013.4
20260903071020 69 0.0 0.0 0.00 0.05 0.00 99 1013.4
20260903070035 69 0.0 0.0 0.00 0.06 0.00 99 1013.5
20260903065032 69 0.0 0.0 0.00 0.16 0.00 99 1013.5
20260903064028 69 0.0 0.0 0.00 0.19 0.00 99 1013.5
20260903063023 69 0.0 0.0 0.00 0.19 0.00 99 1013.5
20260903062019 69 0.0 0.0 0.00 0.19 0.00 99 1013.7
20260903061035 69 0.0 0.0 0.00 0.19 0.00 99 1013.5